| time (UTC) | temp F | wind direction | speed MPH | gust MPH | rain 1hr in | rain 24hr in | rain mn in | humidity % | barometer mb |
| 20260905180039 | 91 | 211 | 11.0 | 20.0 | 0.00 | 0.00 | 0.00 | 38 | 1006.8 |
| 20260905174526 | 91 | 153 | 13.0 | 22.0 | 0.00 | 0.00 | 0.00 | 39 | 1006.9 |
| 20260905173022 | 89 | 180 | 10.0 | 22.0 | 0.00 | 0.00 | 0.00 | 42 | 1007.1 |
| 20260905171523 | 89 | 187 | 12.0 | 18.0 | 0.00 | 0.00 | 0.00 | 42 | 1007.1 |
| 20260905170020 | 88 | 205 | 11.0 | 22.0 | 0.00 | 0.00 | 0.00 | 45 | 1007.3 |
| 20260905164515 | 87 | 175 | 8.0 | 17.0 | 0.00 | 0.00 | 0.00 | 48 | 1007.1 |
| 20260905163011 | 85 | 139 | 9.0 | 17.0 | 0.00 | 0.00 | 0.00 | 50 | 1007.2 |
| 20260905161518 | 84 | 167 | 11.0 | 19.0 | 0.00 | 0.00 | 0.00 | 52 | 1007.2 |
| 20260905160007 | 82 | 157 | 11.0 | 17.0 | 0.00 | 0.00 | 0.00 | 57 | 1007.2 |
| 20260905154505 | 80 | 154 | 13.0 | 22.0 | 0.00 | 0.00 | 0.00 | 59 | 1007.1 |
| 20260905153003 | 79 | 207 | 14.0 | 19.0 | 0.00 | 0.00 | 0.00 | 61 | 1007.3 |
| 20260905151503 | 78 | 159 | 11.0 | 21.0 | 0.00 | 0.00 | 0.00 | 63 | 1007.3 |
| 20260905150004 | 77 | 169 | 13.0 | 24.0 | 0.00 | 0.00 | 0.00 | 64 | 1007.5 |
| 20260905144502 | 76 | 177 | 10.0 | 20.0 | 0.00 | 0.00 | 0.00 | 66 | 1007.4 |
| 20260905143003 | 76 | 177 | 12.0 | 19.0 | 0.00 | 0.00 | 0.00 | 67 | 1007.5 |
| 20260905141601 | 75 | 153 | 10.0 | 18.0 | 0.00 | 0.00 | 0.00 | 68 | 1007.6 |
| 20260905134604 | 74 | 360 | 10.0 | 15.0 | 0.00 | 0.00 | 0.00 | 69 | 1007.8 |
| 20260905134501 | 74 | 153 | 10.0 | 15.0 | 0.00 | 0.00 | 0.00 | 70 | 1007.8 |
| 20260905133057 | 73 | 162 | 8.0 | 11.0 | 0.00 | 0.00 | 0.00 | 71 | 1007.8 |
| 20260905131555 | 73 | 360 | 5.0 | 11.0 | 0.00 | 0.00 | 0.00 | 71 | 1007.6 |
| 20260905130055 | 73 | 360 | 6.0 | 9.0 | 0.00 | 0.00 | 0.00 | 72 | 1007.5 |
| 20260905124556 | 72 | 138 | 4.0 | 8.0 | 0.00 | 0.00 | 0.00 | 72 | 1007.5 |
| 20260905123050 | 72 | 139 | 5.0 | 8.0 | 0.00 | 0.00 | 0.00 | 72 | 1007.2 |
| 20260905121549 | 72 | 131 | 4.0 | 8.0 | 0.00 | 0.00 | 0.00 | 71 | 1007.1 |
| 20260905120058 | 73 | 134 | 6.0 | 10.0 | 0.00 | 0.00 | 0.00 | 70 | 1006.8 |
| 20260905114559 | 73 | 123 | 5.0 | 9.0 | 0.00 | 0.00 | 0.00 | 70 | 1006.8 |
| 20260905113054 | 72 | 140 | 4.0 | 5.0 | 0.00 | 0.00 | 0.00 | 71 | 1006.9 |
| 20260905111632 | 72 | 139 | 3.0 | 5.0 | 0.00 | 0.00 | 0.00 | 71 | 1006.8 |
| 20260905110042 | 72 | 143 | 2.0 | 7.0 | 0.00 | 0.00 | 0.00 | 70 | 1006.7 |
| 20260905104541 | 73 | 183 | 5.0 | 10.0 | 0.00 | 0.00 | 0.00 | 69 | 1006.5 |
| 20260905103039 | 73 | 180 | 7.0 | 12.0 | 0.00 | 0.00 | 0.00 | 68 | 1006.4 |
| 20260905101536 | 74 | 175 | 8.0 | 16.0 | 0.00 | 0.00 | 0.00 | 67 | 1006.4 |
| 20260905100033 | 74 | 200 | 9.0 | 14.0 | 0.00 | 0.00 | 0.00 | 66 | 1006.6 |
| 20260905094532 | 75 | 153 | 8.0 | 15.0 | 0.00 | 0.00 | 0.00 | 64 | 1006.5 |
| 20260905093031 | 75 | 194 | 8.0 | 16.0 | 0.00 | 0.00 | 0.00 | 64 | 1006.6 |
| 20260905091530 | 75 | 360 | 11.0 | 16.0 | 0.00 | 0.00 | 0.00 | 64 | 1006.6 |
| 20260905090029 | 75 | 178 | 9.0 | 16.0 | 0.00 | 0.00 | 0.00 | 63 | 1006.7 |
| 20260905084532 | 75 | 194 | 8.0 | 15.0 | 0.00 | 0.00 | 0.00 | 63 | 1006.7 |
| 20260905083026 | 75 | 178 | 8.0 | 16.0 | 0.00 | 0.00 | 0.00 | 63 | 1006.8 |
| 20260905081525 | 75 | 182 | 10.0 | 16.0 | 0.00 | 0.00 | 0.00 | 62 | 1006.7 |
| 20260905080030 | 76 | 192 | 10.0 | 13.0 | 0.00 | 0.00 | 0.00 | 61 | 1006.7 |
| 20260905074520 | 77 | 206 | 11.0 | 17.0 | 0.00 | 0.00 | 0.00 | 60 | 1006.6 |
| 20260905073020 | 77 | 185 | 13.0 | 20.0 | 0.00 | 0.00 | 0.00 | 59 | 1006.8 |
| 20260905071515 | 78 | 207 | 14.0 | 19.0 | 0.00 | 0.00 | 0.00 | 58 | 1006.9 |
| 20260905070024 | 78 | 194 | 12.0 | 18.0 | 0.00 | 0.00 | 0.00 | 57 | 1006.9 |
| 20260905064533 | 78 | 182 | 13.0 | 20.0 | 0.00 | 0.00 | 0.00 | 57 | 1006.8 |
| 20260905063013 | 79 | 206 | 12.0 | 22.0 | 0.00 | 0.00 | 0.00 | 56 | 1006.9 |
| 20260905061504 | 80 | 188 | 15.0 | 23.0 | 0.00 | 0.00 | 0.00 | 55 | 1006.9 |
| 20260905060003 | 80 | 187 | 12.0 | 17.0 | 0.00 | 0.00 | 0.00 | 55 | 1007.0 |
| 20260905054600 | 81 | 159 | 11.0 | 22.0 | 0.00 | 0.00 | 0.00 | 53 | 1006.9 |
| 20260905053059 | 81 | 198 | 10.0 | 17.0 | 0.00 | 0.00 | 0.00 | 52 | 1006.7 |
| 20260905051553 | 82 | 165 | 8.0 | 18.0 | 0.00 | 0.00 | 0.00 | 52 | 1006.6 |
| 20260905050056 | 82 | 146 | 7.0 | 13.0 | 0.00 | 0.00 | 0.00 | 51 | 1006.8 |
| 20260905044549 | 82 | 154 | 9.0 | 17.0 | 0.00 | 0.00 | 0.00 | 50 | 1006.8 |
| 20260905043048 | 83 | 181 | 10.0 | 15.0 | 0.00 | 0.00 | 0.00 | 47 | 1007.1 |
| 20260905041554 | 84 | 161 | 7.0 | 11.0 | 0.00 | 0.00 | 0.00 | 44 | 1007.3 |
| 20260905040048 | 85 | 176 | 6.0 | 16.0 | 0.00 | 0.00 | 0.00 | 41 | 1007.2 |
| 20260905034547 | 86 | 196 | 13.0 | 17.0 | 0.00 | 0.00 | 0.00 | 38 | 1007.0 |
| 20260905033047 | 87 | 156 | 4.0 | 7.0 | 0.00 | 0.00 | 0.00 | 38 | 1006.8 |
| 20260905031544 | 86 | 166 | 4.0 | 7.0 | 0.00 | 0.00 | 0.00 | 37 | 1006.6 |
| 20260905030043 | 87 | 220 | 1.0 | 4.0 | 0.00 | 0.00 | 0.00 | 37 | 1006.5 |
| 20260905024548 | 86 | 237 | 2.0 | 6.0 | 0.00 | 0.00 | 0.00 | 38 | 1006.3 |
| 20260905023041 | 86 | 290 | 0.0 | 4.0 | 0.00 | 0.00 | 0.00 | 38 | 1006.1 |
| 20260905021543 | 87 | 291 | 5.0 | 7.0 | 0.00 | 0.00 | 0.00 | 37 | 1006.0 |
| 20260905020040 | 88 | 263 | 3.0 | 6.0 | 0.00 | 0.00 | 0.00 | 36 | 1005.9 |
| 20260905014551 | 88 | 276 | 7.0 | 18.0 | 0.00 | 0.00 | 0.00 | 35 | 1005.8 |
| 20260905013039 | 89 | 307 | 17.0 | 25.0 | 0.00 | 0.00 | 0.00 | 34 | 1005.2 |
| 20260905011538 | 90 | 221 | 15.0 | 22.0 | 0.00 | 0.00 | 0.00 | 34 | 1005.5 |
| 20260905010044 | 91 | 360 | 8.0 | 14.0 | 0.00 | 0.00 | 0.00 | 34 | 1004.7 |
| 20260905004537 | 91 | 360 | 9.0 | 15.0 | 0.00 | 0.00 | 0.00 | 32 | 1004.6 |
| 20260905003037 | 92 | 360 | 13.0 | 20.0 | 0.00 | 0.00 | 0.00 | 30 | 1004.4 |
| 20260905001536 | 93 | 128 | 11.0 | 18.0 | 0.00 | 0.00 | 0.00 | 28 | 1004.3 |
| 20260905000135 | 94 | 360 | 11.0 | 19.0 | 0.00 | 0.00 | 0.00 | 27 | 1004.3 |
| 20260904234535 | 94 | 360 | 10.0 | 19.0 | 0.00 | 0.00 | 0.00 | 27 | 1004.0 |
| 20260904233034 | 95 | 130 | 14.0 | 18.0 | 0.00 | 0.00 | 0.00 | 26 | 1003.8 |
| 20260904231533 | 95 | 149 | 14.0 | 21.0 | 0.00 | 0.00 | 0.00 | 26 | 1003.9 |
| 20260904230034 | 95 | 132 | 13.0 | 22.0 | 0.00 | 0.00 | 0.00 | 26 | 1003.7 |
| 20260904224532 | 96 | 360 | 11.0 | 21.0 | 0.00 | 0.00 | 0.00 | 26 | 1003.7 |
| 20260904223043 | 96 | 360 | 12.0 | 22.0 | 0.00 | 0.00 | 0.00 | 27 | 1003.8 |
| 20260904221543 | 95 | 360 | 15.0 | 22.0 | 0.00 | 0.00 | 0.00 | 27 | 1003.9 |
| 20260904220029 | 96 | 124 | 14.0 | 25.0 | 0.00 | 0.00 | 0.00 | 27 | 1004.1 |
| 20260904214536 | 96 | 360 | 9.0 | 19.0 | 0.00 | 0.00 | 0.00 | 27 | 1004.1 |
| 20260904213028 | 97 | 144 | 10.0 | 19.0 | 0.00 | 0.00 | 0.00 | 26 | 1004.1 |
| 20260904211533 | 96 | 119 | 9.0 | 19.0 | 0.00 | 0.00 | 0.00 | 27 | 1004.3 |
| 20260904210025 | 97 | 360 | 9.0 | 15.0 | 0.00 | 0.00 | 0.00 | 26 | 1004.4 |
| 20260904204527 | 98 | 129 | 11.0 | 18.0 | 0.00 | 0.00 | 0.00 | 25 | 1004.5 |
| 20260904203029 | 98 | 182 | 11.0 | 16.0 | 0.00 | 0.00 | 0.00 | 26 | 1004.7 |
| 20260904201527 | 97 | 211 | 10.0 | 17.0 | 0.00 | 0.00 | 0.00 | 26 | 1005.0 |
| 20260904200018 | 97 | 115 | 6.0 | 13.0 | 0.00 | 0.00 | 0.00 | 27 | 1005.2 |
| 20260904194535 | 97 | 123 | 6.0 | 15.0 | 0.00 | 0.00 | 0.00 | 26 | 1005.3 |
| 20260904193027 | 96 | 163 | 4.0 | 13.0 | 0.00 | 0.00 | 0.00 | 28 | 1005.6 |
| 20260904191512 | 96 | 139 | 3.0 | 13.0 | 0.00 | 0.00 | 0.00 | 28 | 1005.7 |
| 20260904190011 | 95 | 207 | 8.0 | 14.0 | 0.00 | 0.00 | 0.00 | 29 | 1005.9 |
| 20260904184510 | 95 | 155 | 8.0 | 14.0 | 0.00 | 0.00 | 0.00 | 28 | 1006.2 |
| 20260904183008 | 95 | 210 | 11.0 | 17.0 | 0.00 | 0.00 | 0.00 | 29 | 1006.4 |
| 20260904181505 | 94 | 182 | 12.0 | 17.0 | 0.00 | 0.00 | 0.00 | 29 | 1006.5 |